Pittsfield, MA

7:02 AM EDT on October 19, 2019 (GMT -0400)
Pittsfield Municipal

Weather History for KPSF - September, 2019

Change the Weather History Date:

Monday, September 16, 2019

  Actual Average Record
Temperature  
Mean Temperature 58 °F 58 °F  
Max Temperature 70 °F 69 °F 86 °F (2018)
Min Temperature 47 °F 48 °F 29 °F (1964)
Degree Days  
Heating Degree Days 6 7  
Month to date heating degree days 68 77  
Since 1 July heating degree days 94 155  
Cooling Degree Days 0 0  
Month to date cooling degree days 15 16  
Year to date cooling degree days 407 286  
Growing Degree Days 8 (Base 50)    
Moisture  
Dew Point 50 °F    
Average Humidity 70    
Maximum Humidity 89    
Minimum Humidity 44    
Precipitation  
Precipitation 0.00 in 0.13 in 3.85 in (1999)
Month to date precipitation 2.54 1.90  
Year to date precipitation 30.60 31.68  
Sea Level Pressure  
Sea Level Pressure 30.03 in    
Wind  
Wind Speed 3 mph ()    
Max Wind Speed 13 mph    
Max Gust Speed 18 mph    
Visibility 10.0 miles    
Events      
T = Trace of Precipitation, MM = Missing Value Source: Averaged Metar Reports

Daily Weather History Graph

Daily Weather History Graph

Search for Another Location

Airport or City:

Astronomy

Sep. 16, 2019 Rise Set
Actual Time 6:33 AM EDT 7:01 PM EDT
Civil Twilight 6:05 AM EDT 7:29 PM EDT
Nautical Twilight 5:32 AM EDT 8:02 PM EDT
Astronomical Twilight 4:58 AM EDT 8:36 PM EDT
Moon 8:32 PM EDT (9/16) 8:40 AM EDT (9/16)
Length of Visible Light 13h 24m
Length of Day
12h 27m
Waning Gibbous, 94% of the Moon is Illuminated
Sep 16
Waning Gibbous
Sep 21
Last Quarter
Sep 28
New
Oct 5
First Quarter
Oct 13
Full

Hourly Weather History & Observations

Time (EDT) Temp. Dew Point Humidity Pressure Visibility Wind Dir Wind Speed Gust Speed Precip Events Conditions
12:54 AM 60.1 °F 55.0 °F 83% 30.01 in 10.0 mi Calm Calm - N/A   Overcast
1:34 AM 62.1 °F 54.0 °F 75% 30.07 in 10.0 mi WSW 5.8 mph - N/A   Overcast
1:54 AM 61.0 °F 54.0 °F 78% 30.01 in 10.0 mi West 3.5 mph - N/A   Overcast
2:54 AM 61.0 °F 54.0 °F 78% 30.01 in 10.0 mi Calm Calm - N/A   Overcast
3:11 AM 61.0 °F 54.0 °F 78% 30.07 in 10.0 mi Calm Calm - N/A   Overcast
3:54 AM 60.1 °F 55.0 °F 83% 30.01 in 10.0 mi Calm Calm - N/A   Overcast
4:03 AM 60.1 °F 54.0 °F 80% 30.07 in 10.0 mi WSW 3.5 mph - N/A   Overcast
4:52 AM 60.8 °F 55.4 °F 82% 30.07 in 10.0 mi West 3.5 mph - N/A   Overcast
4:54 AM 60.1 °F 55.0 °F 83% 30.01 in 10.0 mi Variable 3.5 mph - N/A   Overcast
5:04 AM 59.0 °F 55.0 °F 87% 30.07 in 10.0 mi West 5.8 mph - N/A   Overcast
5:54 AM 57.9 °F 52.0 °F 81% 30.03 in 10.0 mi West 5.8 mph - N/A   Overcast
6:54 AM 57.9 °F 51.1 °F 78% 30.05 in 10.0 mi West 4.6 mph - N/A   Overcast
7:37 AM 57.9 °F 50.0 °F 75% 30.10 in 10.0 mi West 4.6 mph - N/A   Scattered Clouds
7:54 AM 59.0 °F 48.9 °F 69% 30.05 in 10.0 mi WNW 3.5 mph - N/A   Clear
8:54 AM 61.0 °F 48.0 °F 62% 30.06 in 10.0 mi WNW 9.2 mph - N/A   Clear
9:54 AM 63.0 °F 46.0 °F 54% 30.06 in 10.0 mi NW 8.1 mph - N/A   Clear
10:54 AM 64.9 °F 48.0 °F 54% 30.04 in 10.0 mi WNW 8.1 mph - N/A   Clear
11:54 AM 66.9 °F 50.0 °F 54% 30.01 in 10.0 mi West 11.5 mph - N/A   Clear
12:54 PM 66.9 °F 50.0 °F 54% 30.01 in 10.0 mi WNW 8.1 mph - N/A   Scattered Clouds
1:54 PM 68.0 °F 48.9 °F 50% 29.99 in 10.0 mi Variable 3.5 mph - N/A   Clear
2:54 PM 68.0 °F 48.9 °F 50% 29.99 in 10.0 mi West 3.5 mph - N/A   Clear
3:54 PM 69.1 °F 46.0 °F 44% 29.99 in 10.0 mi WNW 9.2 mph 17.3 mph N/A   Clear
4:54 PM 68.0 °F 46.0 °F 45% 29.99 in 10.0 mi WNW 10.4 mph - N/A   Clear
5:54 PM 66.0 °F 46.9 °F 50% 30.00 in 10.0 mi North 3.5 mph - N/A   Clear
6:54 PM 62.1 °F 46.9 °F 58% 30.00 in 10.0 mi Calm Calm - N/A   Clear
7:54 PM 55.9 °F 48.9 °F 77% 30.01 in 10.0 mi Calm Calm - N/A   Clear
8:54 PM 54.0 °F 48.9 °F 83% 30.03 in 10.0 mi Calm Calm - N/A   Clear
9:54 PM 51.1 °F 48.0 °F 89% 30.05 in 10.0 mi Calm Calm - N/A   Clear
10:54 PM 51.1 °F 48.0 °F 89% 30.06 in 10.0 mi Calm Calm - N/A   Clear
11:54 PM 50.0 °F 46.0 °F 86% 30.06 in 10.0 mi Calm Calm - N/A   Clear